AGJ920 RJSN-RJSA

Flight info

Callsign AGJ920
Flight time 1h 0m
Altitude 200
Route SASAG3 UWE MAGGY MRE ABURA ASAMU D052N OHRIN
Aircraft B60T/L-SDE3FG/L

Departure

Time 2026-04-21 20:28
Airport Niigata Airport (RJSN)

Arrival

Time 2026-04-21 21:28
Airport Aomori Airport (RJSA)
Time Latitude Longitude Altitude Speed Heading
2026-04-21 20:11 37.95333 139.11187 49 ft 0 kts 183°
2026-04-21 20:22 37.95321 139.11187 22 ft 0 kts 165°
2026-04-21 20:23 37.95328 139.11234 21 ft 13 kts 49°
2026-04-21 20:23 37.95381 139.11286 21 ft 11 kts 37°
2026-04-21 20:23 37.95438 139.11394 20 ft 17 kts 71°
2026-04-21 20:24 37.95445 139.11473 20 ft 3 kts 88°
2026-04-21 20:24 37.95445 139.11534 19 ft 14 kts 94°
2026-04-21 20:24 37.95442 139.11681 19 ft 11 kts 92°
2026-04-21 20:24 37.95439 139.11761 18 ft 15 kts 95°
2026-04-21 20:25 37.95435 139.11906 17 ft 13 kts 92°
2026-04-21 20:25 37.95427 139.12065 17 ft 16 kts 89°
2026-04-21 20:25 37.95421 139.12235 16 ft 17 kts 90°
2026-04-21 20:25 37.95443 139.12367 15 ft 15 kts 29°
2026-04-21 20:26 37.95525 139.12389 14 ft 16 kts
2026-04-21 20:26 37.95583 139.12320 13 ft 13 kts 275°
2026-04-21 20:26 37.95584 139.12297 14 ft 0 kts 272°
2026-04-21 20:27 37.95587 139.12137 15 ft 54 kts 271°
2026-04-21 20:27 37.95635 139.11441 103 ft 101 kts 273°
2026-04-21 20:27 37.95827 139.10574 571 ft 103 kts 277°
2026-04-21 20:28 37.96112 139.09735 1031 ft 117 kts 317°
2026-04-21 20:28 37.96956 139.09552 1526 ft 130 kts 353°
2026-04-21 20:28 37.97866 139.09562 2040 ft 131 kts 349°
2026-04-21 20:28 37.98779 139.09589 2571 ft 131 kts 347°
2026-04-21 20:29 37.99668 139.09628 3071 ft 128 kts 347°
2026-04-21 20:29 38.00548 139.09668 3544 ft 126 kts 347°
2026-04-21 20:29 38.01419 139.09706 4000 ft 125 kts 348°
2026-04-21 20:29 38.02284 139.09744 4463 ft 124 kts 347°
2026-04-21 20:30 38.03139 139.09782 4930 ft 122 kts 347°
2026-04-21 20:30 38.03990 139.09818 5350 ft 124 kts 347°
2026-04-21 20:30 38.04878 139.09852 5681 ft 132 kts 348°
2026-04-21 20:30 38.05811 139.09895 6048 ft 135 kts 349°
2026-04-21 20:31 38.06753 139.09940 6432 ft 136 kts 349°
2026-04-21 20:31 38.07689 139.09982 6793 ft 136 kts 348°
2026-04-21 20:31 38.08633 139.10025 7160 ft 136 kts 348°
2026-04-21 20:31 38.09578 139.10067 7516 ft 136 kts 348°
2026-04-21 20:32 38.10524 139.10108 7877 ft 136 kts 348°
2026-04-21 20:32 38.12256 139.10185 8542 ft 135 kts 347°
2026-04-21 20:32 38.13199 139.10227 8908 ft 135 kts 347°
2026-04-21 20:33 38.14135 139.10268 9275 ft 136 kts 347°
2026-04-21 20:33 38.15142 139.10301 9746 ft 152 kts 348°
2026-04-21 20:33 38.16234 139.10352 10288 ft 161 kts 349°
2026-04-21 20:33 38.17353 139.10407 10858 ft 165 kts 348°
2026-04-21 20:34 38.18507 139.10463 11461 ft 167 kts 348°
2026-04-21 20:34 38.19692 139.10744 12068 ft 182 kts
2026-04-21 20:34 38.20899 139.11304 12701 ft 182 kts
2026-04-21 20:34 38.22095 139.11822 13326 ft 182 kts
2026-04-21 20:35 38.23275 139.12336 13930 ft 182 kts
2026-04-21 20:35 38.24471 139.12858 14478 ft 182 kts
2026-04-21 20:35 38.25667 139.13382 15027 ft 181 kts
2026-04-21 20:35 38.26859 139.13903 15577 ft 181 kts 359°
2026-04-21 20:36 38.28050 139.14424 16123 ft 181 kts 358°
2026-04-21 20:36 38.29239 139.14944 16662 ft 181 kts 358°
2026-04-21 20:36 38.30428 139.15464 17202 ft 180 kts 356°
2026-04-21 20:36 38.31614 139.15984 17744 ft 180 kts 355°
2026-04-21 20:37 38.32798 139.16501 18281 ft 180 kts 355°
2026-04-21 20:37 38.33977 139.17017 18736 ft 179 kts 354°
2026-04-21 20:37 38.35153 139.17534 19182 ft 178 kts 354°
2026-04-21 20:37 38.36326 139.18048 19634 ft 177 kts 353°
2026-04-21 20:38 38.37500 139.18558 19988 ft 184 kts 353°
2026-04-21 20:38 38.38803 139.19093 20011 ft 210 kts 356°
2026-04-21 20:38 38.40265 139.19735 20012 ft 233 kts 360°
2026-04-21 20:38 38.41840 139.20465 20009 ft 251 kts
2026-04-21 20:39 38.43403 139.21785 20010 ft 290 kts 31°
2026-04-21 20:39 38.44804 139.23726 19994 ft 301 kts 36°
2026-04-21 20:39 38.46187 139.25720 20006 ft 301 kts 35°
2026-04-21 20:39 38.47614 139.27689 19999 ft 304 kts 34°
2026-04-21 20:40 38.49045 139.29646 20000 ft 307 kts 35°
2026-04-21 20:40 38.50492 139.31658 20003 ft 308 kts 35°
2026-04-21 20:40 38.51938 139.33677 20004 ft 308 kts 35°
2026-04-21 20:40 38.53392 139.35696 19997 ft 309 kts 35°
2026-04-21 20:41 38.54849 139.37718 19999 ft 309 kts 35°
2026-04-21 20:41 38.56309 139.39748 19999 ft 310 kts 35°
2026-04-21 20:41 38.57768 139.41780 19998 ft 309 kts 35°
2026-04-21 20:41 38.59226 139.43810 19996 ft 309 kts 34°
2026-04-21 20:42 38.60679 139.45835 19998 ft 309 kts 35°
2026-04-21 20:42 38.62132 139.47860 19996 ft 309 kts 35°
2026-04-21 20:42 38.63580 139.49880 19995 ft 308 kts 35°
2026-04-21 20:42 38.65031 139.51905 19991 ft 308 kts 35°
2026-04-21 20:43 38.66458 139.53899 19993 ft 308 kts 35°
2026-04-21 20:43 38.67902 139.55917 19990 ft 308 kts 34°
2026-04-21 20:43 38.69359 139.57907 19989 ft 302 kts 29°
2026-04-21 20:43 38.71004 139.59413 19989 ft 281 kts 12°
2026-04-21 20:44 38.72733 139.60518 19991 ft 277 kts
2026-04-21 20:44 38.74463 139.61626 19988 ft 278 kts 10°
2026-04-21 20:44 38.76188 139.62748 19983 ft 278 kts 10°
2026-04-21 20:44 38.77916 139.63866 19986 ft 278 kts 10°
2026-04-21 20:45 38.79642 139.64979 19982 ft 277 kts 10°
2026-04-21 20:45 38.81370 139.66094 19978 ft 277 kts 10°
2026-04-21 20:45 38.83093 139.67209 19980 ft 277 kts 10°
2026-04-21 20:45 38.84819 139.68326 19977 ft 277 kts 10°
2026-04-21 20:46 38.86517 139.69425 19978 ft 277 kts 10°
2026-04-21 20:46 38.88239 139.70541 19976 ft 277 kts 10°
2026-04-21 20:46 38.89956 139.71653 19974 ft 276 kts 10°
2026-04-21 20:46 38.91671 139.72765 19973 ft 276 kts 10°
2026-04-21 20:47 38.93385 139.73877 19976 ft 276 kts
2026-04-21 20:47 38.95098 139.74990 19973 ft 276 kts
2026-04-21 20:47 38.96811 139.76102 19972 ft 276 kts
2026-04-21 20:47 38.98522 139.77213 19970 ft 275 kts
2026-04-21 20:48 39.00235 139.78326 19971 ft 275 kts
2026-04-21 20:48 39.01945 139.79439 19967 ft 275 kts
2026-04-21 20:48 39.03651 139.80550 19966 ft 275 kts
2026-04-21 20:48 39.05359 139.81662 19966 ft 275 kts
2026-04-21 20:49 39.07068 139.82776 19961 ft 275 kts
2026-04-21 20:49 39.08769 139.83885 19959 ft 274 kts
2026-04-21 20:49 39.10470 139.84994 19958 ft 274 kts
2026-04-21 20:49 39.12152 139.86090 19961 ft 274 kts
2026-04-21 20:50 39.13855 139.87203 19955 ft 274 kts
2026-04-21 20:50 39.15555 139.88314 19953 ft 274 kts
2026-04-21 20:50 39.17257 139.89426 19954 ft 274 kts
2026-04-21 20:50 39.18957 139.90539 19955 ft 274 kts
2026-04-21 20:51 39.20655 139.91649 19955 ft 274 kts
2026-04-21 20:51 39.22359 139.92764 19950 ft 275 kts
2026-04-21 20:51 39.24067 139.93884 19953 ft 275 kts
2026-04-21 20:51 39.25773 139.95004 19950 ft 275 kts
2026-04-21 20:52 39.27475 139.96121 19950 ft 274 kts
2026-04-21 20:52 39.29176 139.97236 19946 ft 274 kts
2026-04-21 20:52 39.30875 139.98350 19948 ft 274 kts
2026-04-21 20:52 39.32578 139.99469 19941 ft 275 kts
2026-04-21 20:53 39.34280 140.00590 19941 ft 274 kts
2026-04-21 20:53 39.35975 140.01705 19940 ft 273 kts
2026-04-21 20:53 39.37669 140.02818 19942 ft 273 kts 10°
2026-04-21 20:53 39.39344 140.03920 19937 ft 273 kts 10°
2026-04-21 20:54 39.41038 140.05038 19934 ft 273 kts 10°
2026-04-21 20:54 39.42719 140.06149 19935 ft 270 kts 10°
2026-04-21 20:54 39.44394 140.07251 19928 ft 270 kts
2026-04-21 20:54 39.46064 140.08349 19937 ft 269 kts 10°
2026-04-21 20:55 39.47737 140.09454 19935 ft 270 kts 10°
2026-04-21 20:55 39.49416 140.10565 19933 ft 271 kts 10°
2026-04-21 20:55 39.51093 140.11673 19935 ft 271 kts 10°
2026-04-21 20:55 39.52777 140.12784 19936 ft 272 kts 10°
2026-04-21 20:56 39.54462 140.13901 19940 ft 272 kts 10°
2026-04-21 20:56 39.56148 140.15017 19930 ft 272 kts 10°
2026-04-21 20:56 39.57265 140.15758 19928 ft 272 kts 10°
2026-04-21 20:57 39.61176 140.18349 19929 ft 271 kts 10°
2026-04-21 20:57 39.62870 140.19259 19931 ft 259 kts
2026-04-21 20:57 39.64584 140.20014 19934 ft 260 kts
2026-04-21 20:57 39.66290 140.20791 19932 ft 260 kts
2026-04-21 20:58 39.67992 140.21580 19930 ft 260 kts
2026-04-21 20:58 39.69688 140.22361 19928 ft 258 kts
2026-04-21 20:58 39.71378 140.23133 19926 ft 257 kts
2026-04-21 20:58 39.73062 140.23903 19931 ft 257 kts
2026-04-21 20:59 39.74757 140.24680 19931 ft 258 kts
2026-04-21 20:59 39.76458 140.25462 19925 ft 259 kts
2026-04-21 20:59 39.78163 140.26245 19923 ft 260 kts
2026-04-21 20:59 39.79867 140.27030 19932 ft 259 kts
2026-04-21 21:00 39.81572 140.27814 19919 ft 259 kts
2026-04-21 21:00 39.83269 140.28598 19923 ft 258 kts
2026-04-21 21:00 39.84954 140.29375 19923 ft 256 kts
2026-04-21 21:00 39.86631 140.30145 19923 ft 256 kts
2026-04-21 21:01 39.88285 140.30906 19921 ft 255 kts
2026-04-21 21:01 39.89967 140.31678 19924 ft 258 kts
2026-04-21 21:01 39.91660 140.32459 19923 ft 258 kts
2026-04-21 21:01 39.93358 140.33244 19920 ft 259 kts
2026-04-21 21:02 39.95058 140.34019 19915 ft 258 kts
2026-04-21 21:02 39.96761 140.34796 19908 ft 259 kts
2026-04-21 21:02 39.98462 140.35574 19916 ft 259 kts
2026-04-21 21:02 40.00163 140.36354 19908 ft 259 kts
2026-04-21 21:03 40.01862 140.37134 19909 ft 259 kts
2026-04-21 21:03 40.03563 140.37918 19913 ft 258 kts
2026-04-21 21:03 40.05255 140.38694 19910 ft 258 kts
2026-04-21 21:03 40.06944 140.39469 19907 ft 257 kts
2026-04-21 21:04 40.08630 140.40242 19907 ft 257 kts
2026-04-21 21:04 40.10320 140.41018 19903 ft 257 kts
2026-04-21 21:04 40.12007 140.41796 19902 ft 257 kts
2026-04-21 21:04 40.13696 140.42573 19906 ft 257 kts
2026-04-21 21:05 40.15387 140.43352 19905 ft 257 kts
2026-04-21 21:05 40.17056 140.44121 19898 ft 258 kts
2026-04-21 21:05 40.18748 140.44901 19896 ft 257 kts
2026-04-21 21:05 40.20436 140.45681 19896 ft 257 kts
2026-04-21 21:06 40.22122 140.46459 19896 ft 256 kts
2026-04-21 21:06 40.23809 140.47236 19892 ft 257 kts
2026-04-21 21:06 40.25491 140.48013 19892 ft 257 kts
2026-04-21 21:06 40.27180 140.48796 19887 ft 256 kts
2026-04-21 21:07 40.28856 140.49571 19888 ft 256 kts
2026-04-21 21:07 40.30532 140.50346 19887 ft 256 kts
2026-04-21 21:07 40.32215 140.51124 19882 ft 256 kts
2026-04-21 21:07 40.33895 140.51902 19872 ft 256 kts
2026-04-21 21:08 40.35571 140.52681 19873 ft 255 kts
2026-04-21 21:08 40.37242 140.53457 19874 ft 253 kts
2026-04-21 21:08 40.38901 140.54225 19869 ft 253 kts
2026-04-21 21:08 40.40564 140.54993 19872 ft 254 kts
2026-04-21 21:09 40.42231 140.55767 19866 ft 254 kts
2026-04-21 21:09 40.43900 140.56545 19863 ft 254 kts
2026-04-21 21:09 40.45544 140.57312 19859 ft 253 kts
2026-04-21 21:09 40.47200 140.58083 19854 ft 253 kts
2026-04-21 21:10 40.48861 140.58853 19852 ft 253 kts
2026-04-21 21:10 40.50523 140.59625 19842 ft 254 kts
2026-04-21 21:10 40.52183 140.60401 19848 ft 253 kts
2026-04-21 21:10 40.53848 140.61175 19843 ft 254 kts
2026-04-21 21:11 40.55534 140.61955 19620 ft 260 kts
2026-04-21 21:11 40.57210 140.62752 19207 ft 241 kts
2026-04-21 21:11 40.58692 140.63482 18757 ft 228 kts 360°
2026-04-21 21:11 40.60289 140.64150 18300 ft 251 kts
2026-04-21 21:12 40.61960 140.64932 17695 ft 249 kts
2026-04-21 21:12 40.63455 140.65708 17163 ft 215 kts
2026-04-21 21:13 40.67349 140.67483 15559 ft 189 kts
2026-04-21 21:13 40.68587 140.68060 15050 ft 187 kts
2026-04-21 21:13 40.69818 140.68636 14549 ft 191 kts
2026-04-21 21:13 40.71104 140.69228 14059 ft 199 kts
2026-04-21 21:14 40.72407 140.69842 13563 ft 203 kts
2026-04-21 21:14 40.73748 140.70389 12994 ft 198 kts 352°
2026-04-21 21:14 40.74965 140.70372 12258 ft 161 kts 333°
2026-04-21 21:14 40.76046 140.70151 11475 ft 154 kts 333°
2026-04-21 21:15 40.77118 140.69945 10704 ft 160 kts 333°
2026-04-21 21:15 40.77855 140.69802 10247 ft 162 kts 333°
2026-04-21 21:15 40.78959 140.69604 9728 ft 161 kts 333°
2026-04-21 21:15 40.80080 140.69393 9177 ft 164 kts 333°
2026-04-21 21:16 40.81212 140.69186 8615 ft 164 kts 333°
2026-04-21 21:16 40.82341 140.68979 8059 ft 164 kts 333°
2026-04-21 21:16 40.83466 140.68771 7535 ft 163 kts 333°
2026-04-21 21:16 40.84583 140.68564 7010 ft 162 kts 334°
2026-04-21 21:17 40.85692 140.68359 6504 ft 161 kts 334°
2026-04-21 21:17 40.86802 140.68152 5990 ft 165 kts 334°
2026-04-21 21:17 40.88010 140.67905 5486 ft 184 kts 336°
2026-04-21 21:17 40.89354 140.67857 4997 ft 208 kts 358°
2026-04-21 21:18 40.90712 140.68701 4670 ft 225 kts 30°
2026-04-21 21:18 40.91655 140.70344 4360 ft 226 kts 60°
2026-04-21 21:18 40.92322 140.72211 4058 ft 222 kts 63°
2026-04-21 21:18 40.92974 140.74021 3762 ft 219 kts 63°
2026-04-21 21:19 40.93533 140.75908 3536 ft 225 kts 82°
2026-04-21 21:19 40.93558 140.77957 3334 ft 221 kts 107°
2026-04-21 21:19 40.93095 140.79840 3143 ft 212 kts 123°
2026-04-21 21:19 40.92495 140.81606 3001 ft 206 kts 130°
2026-04-21 21:20 40.91793 140.83209 2998 ft 198 kts 133°
2026-04-21 21:20 40.90997 140.84605 2989 ft 177 kts 158°
2026-04-21 21:20 40.89959 140.85171 2996 ft 150 kts 189°
2026-04-21 21:20 40.88954 140.85162 2999 ft 141 kts 195°
2026-04-21 21:21 40.87988 140.85115 3005 ft 139 kts 195°
2026-04-21 21:21 40.87012 140.85057 2996 ft 140 kts 195°
2026-04-21 21:21 40.86076 140.84940 2977 ft 131 kts 202°
2026-04-21 21:21 40.85141 140.84725 2998 ft 144 kts 202°
2026-04-21 21:22 40.84160 140.84481 3008 ft 146 kts 202°
2026-04-21 21:22 40.83181 140.84196 3009 ft 139 kts 208°
2026-04-21 21:22 40.82408 140.83718 2987 ft 107 kts 226°
2026-04-21 21:22 40.81938 140.83034 2991 ft 101 kts 229°
2026-04-21 21:23 40.81475 140.82381 2991 ft 92 kts 230°
2026-04-21 21:23 40.81069 140.81774 2928 ft 86 kts 230°
2026-04-21 21:23 40.80692 140.81187 2837 ft 87 kts 232°
2026-04-21 21:23 40.80303 140.80549 2700 ft 89 kts 232°
2026-04-21 21:24 40.79916 140.79918 2577 ft 88 kts 232°
2026-04-21 21:24 40.79531 140.79289 2466 ft 88 kts 231°
2026-04-21 21:24 40.79154 140.78651 2338 ft 88 kts 231°
2026-04-21 21:24 40.78772 140.78011 2217 ft 90 kts 230°
2026-04-21 21:25 40.78383 140.77353 2092 ft 92 kts 230°
2026-04-21 21:25 40.78081 140.76843 1996 ft 93 kts 229°
2026-04-21 21:25 40.77683 140.76176 1867 ft 92 kts 230°
2026-04-21 21:25 40.77311 140.75548 1731 ft 83 kts 228°
2026-04-21 21:26 40.76955 140.74950 1613 ft 83 kts 228°
2026-04-21 21:26 40.76598 140.74353 1489 ft 84 kts 229°
2026-04-21 21:26 40.76247 140.73763 1384 ft 79 kts 229°
2026-04-21 21:26 40.75919 140.73210 1273 ft 75 kts 228°
2026-04-21 21:27 40.75593 140.72662 1167 ft 77 kts 229°
2026-04-21 21:27 40.75253 140.72090 1061 ft 78 kts 229°
2026-04-21 21:27 40.74906 140.71482 964 ft 95 kts 231°
2026-04-21 21:27 40.74461 140.70758 790 ft 96 kts 231°
2026-04-21 21:28 40.74087 140.70135 704 ft 80 kts 228°
2026-04-21 21:28 40.73767 140.69587 687 ft 66 kts 228°
2026-04-21 21:28 40.73500 140.69156 681 ft 1 kts 235°
2026-04-21 21:29 40.73559 140.69162 681 ft 13 kts 336°
2026-04-21 21:29 40.73612 140.69121 682 ft 7 kts 332°
2026-04-21 21:29 40.73662 140.69083 683 ft 10 kts 332°
2026-04-21 21:29 40.73743 140.69123 683 ft 15 kts 30°
2026-04-21 21:30 40.73830 140.69124 683 ft 8 kts 331°
2026-04-21 21:30 40.73849 140.69104 680 ft 0 kts 316°